METEOR 2-17 DEB, 38540

Orbit data source: Space-Track

METEOR 2-17 DEB, 38540 is space debris in LEO originally from a launch on Sat, 30 Jan 1988 UTC launched from the Plesetsk Missile And Space Complex (PKMTR). Debris objects in space refer to the collection of defunct objects orbiting the Earth. Examples of debris include non-operational satellites, rocket bodies, and fragments generated from explosions, collisions, or faulty payload assembly.

Loading next visibility...
Identifier
38540, 1988-005AT
Orbit
LEO
Country
Flag of CISCIS
Related business
Manufacturer
Unknown
Mission
Spacecraft
Bus & Motor
Unknown
Mass
Unknown
Launch date (UTC)
1988-01-30 (38 years ago)
Launch vehicle
Unknown
Launch site
Plesetsk Missile And Space Complex (PKMTR)
Object type
Payload
Rocket body
Debris
Shape & HBR
Unknown shape, 0.1 m
Radar Cross Section
Small (<0.1 m²)

Expand to show TLE details & history
Last TLE update: 2 weeks ago

TLE from 2 weeks ago
0 METEOR 2-17 DEB
1 38540U 88005AT  25338.28376772  .00012189  00000-0  45542-2 0  9997
2 38540  82.5082 182.8505 0003613 291.0853  68.9947 14.31765638120906
Epoch: 2025-12-04T06:48Z
TLE epoch observation values (Epoch: 2025-12-04T06:48:37.531Z)
Latitude
-0°
Longitude
7.35169°
Altitude
787.875 km
Speed
7.46 km/s
True Right ascension
12h 11m 24s
True Declination
0° 00' 00"
Sunlit
Object was in daylight at epoch
Visualization orbit readout
Latitude
Unknown
Longitude
Unknown
Altitude
Unknown
Speed
Unknown
Apparent Right ascension
Unknown
Apparent Declination
Unknown
Sunlit
N/A
Visualization observer readout
Local Sidereal Time
19:26:10
Azimuth
Unknown
Elevation
Unknown
Doppler factor
Unknown
Orbital elements
Apogee altitude
785.511 km
Perigee altitude
780.336 km
Semi-major axis
7,161.06 km
Eccentricity
0.00036
Inclination
82.5082°
RAAN
182.8505°
Arg. of periapsis
291.0853°
True anomaly
69.03336°
Mean anomaly
68.9947°
Eccentric anomaly
69.01403°
Mean motion
3.5816 °/min
Orbital period
100.51 mins
BSTAR
0.0045542
Loading maneuver chart data...
Computing Atmospheric mass density...
Loading historical data...
Loading historical data...
Loading historical data...
Loading historical data...
Loading historical data...
Loading historical data...
Loading historical data...

Documentation

Showing up to 5 results
|